Location: Piotrkow Trybunalski
(51.4000°N, 19.6830°E)
Time: 06:30:58
(UTC+02:00)

Explorer 7 - Visible Passes

Search period start: 13 September 2024 00:00
Search period end: 23 September 2024 00:00
Orbit: 462 x 610 km, 50.3° (Epoch: 12 September)

Date Brightness Start Highest point End Pass type
(mag) Time Alt. Az. Time Alt. Az. Time Alt. Az.
13 Sep 7.6 04:19:29 28° S 04:20:22 32° SSE 04:23:39 10° E visible
14 Sep 7.3 04:09:48 36° S 04:10:10 37° SSE 04:13:33 10° E visible
15 Sep 7.2 04:00:01 42° SSE 04:00:01 42° SSE 04:03:22 10° E visible
15 Sep 6.5 05:35:30 10° W 05:39:09 76° S 05:42:46 10° E visible
16 Sep 7.3 03:50:08 43° SE 03:50:08 43° SE 03:53:04 10° E visible
16 Sep 6.5 05:25:29 12° W 05:28:50 76° S 05:32:27 10° E visible
17 Sep 7.6 03:40:11 37° ESE 03:40:11 37° ESE 03:42:41 10° E visible
17 Sep 6.5 05:15:31 15° W 05:18:25 76° S 05:22:02 10° E visible
18 Sep 8.1 03:30:09 30° E 03:30:09 30° E 03:32:11 10° E visible
18 Sep 6.4 05:05:29 20° W 05:07:55 74° S 05:11:33 10° E visible
19 Sep 8.6 03:20:03 24° E 03:20:03 24° E 03:21:38 10° E visible
19 Sep 6.4 04:55:23 26° W 04:57:20 71° S 05:00:57 10° ESE visible
20 Sep 9.0 03:09:56 18° E 03:09:56 18° E 03:10:59 10° E visible
20 Sep 6.4 04:45:16 35° W 04:46:39 67° S 04:50:16 10° ESE visible
21 Sep 9.4 02:59:47 13° E 02:59:47 13° E 03:00:14 10° E visible
21 Sep 6.5 04:35:07 48° WSW 04:35:53 63° SSW 04:39:29 10° ESE visible
22 Sep 6.5 04:24:58 58° SSW 04:25:02 58° SSW 04:28:36 10° ESE visible
